Location: Dziadówki Falniowskie
(50.3500°N, 19.9500°E)
Time: 13:40:30
(UTC+00:00)

Daily predictions for brighter satellites

Satellite Brightness Start Highest point End
(mag) Time Altitude Azimuth Time Altitude Azimuth Time Altitude Azimuth
Cosmos 2228 3.4 19:29:37 10° N 19:33:43 46° ENE 19:37:49 10° SSE
IRAS Rocket 4.3 19:31:09 10° NNE 19:36:45 65° ESE 19:42:15 10° S
Lacrosse 5 3.5 19:32:59 10° WNW 19:37:04 24° SW 19:41:09 10° S
Cosmos 968 Rocket 4.4 19:36:24 10° NNW 19:41:15 38° NE 19:46:06 10° SE
Meteor 1-24 Rocket 4.4 19:41:18 10° SSW 19:46:33 56° WNW 19:52:00 10° N
Cosmos 1271 Rocket 4.1 19:44:09 10° NNW 19:47:52 39° W 19:51:32 10° SSW
Cosmos 2360 4.3 19:42:08 10° NNW 19:47:54 81° ENE 19:53:39 10° SSE
Cosmos 1867 4.2 19:44:39 10° NW 19:50:02 52° NE 19:55:21 10° ESE
Cosmos 2082 Rocket 3.3 19:46:49 10° SSE 19:51:23 25° ESE 19:55:57 10° NE
H-2A R/B 3.4 19:49:29 10° N 19:53:42 44° WNW 19:57:58 10° SW
USA 276 1.9 19:51:26 10° W 19:54:29 85° S 19:57:30 10° E
Cosmos 1455 3.8 19:53:42 10° NNW 19:57:10 33° W 20:00:36 10° SSW
USA 245 3.5 19:53:49 10° S 19:57:50 62° WSW 20:01:05 10° NNW
Cosmos 1536 Rocket 3.6 19:54:13 10° SSW 19:58:33 82° W 20:02:57 10° N
Meteor 1-21 Rocket 4.4 19:56:10 10° S 20:01:39 60° E 20:07:17 10° NNE
Cosmos 1606 Rocket 3.7 19:57:52 10° N 20:02:10 60° ENE 20:06:16 11° SSE
CARTOSAT-1 4.4 19:58:11 10° S 20:02:21 48° W 20:06:33 10° NNW
ARIANE 5 R/B 3.1 19:58:11 10° SE 20:02:23 49° ENE 20:06:39 10° N
SPOT 3 Rocket 4.2 20:06:46 10° S 20:11:49 52° W 20:16:57 10° NNW
Cosmos 2074 Rocket 4.3 20:06:06 10° NNW 20:12:20 68° W 20:18:29 10° S
Ariane Rocket 4.5 20:08:59 10° SSW 20:13:34 33° W 20:18:11 10° NNW
Cosmos 1726 Rocket 3.5 20:20:35 10° N 20:24:55 78° ENE 20:28:35 14° SSE
Nadezhda 1 Rocket 3.9 20:20:06 10° S 20:26:11 86° E 20:32:17 10° N
USA 234 3.8 20:20:51 10° E 20:27:17 60° NNE 20:33:43 10° WNW
Cosmos 1892 3.6 20:27:17 16° SSE 20:29:39 32° E 20:33:03 10° NNE
Meteor 2-1 Rocket 4.3 20:24:32 10° NNW 20:30:02 74° W 20:35:17 11° S
SL-16 R/B 3.4 20:28:57 10° NNW 20:34:08 35° NE 20:39:18 10° ESE
Cosmos 1980 Rocket 2.2 20:28:45 10° NNW 20:34:29 87° WSW 20:39:07 16° SSE
Cosmos 1697 Rocket 3.3 20:29:14 10° NW 20:34:37 48° WSW 20:39:32 12° S
Cosmos 2344 4.3 20:28:46 10° NW 20:37:32 76° SW 20:48:13 15° SSE
Cosmos 2369 3.8 20:32:11 10° NNW 20:37:56 75° WSW 20:42:35 16° SSE
Cosmos 1331 Rocket 4.3 20:34:19 10° SSW 20:39:37 72° WNW 20:44:56 10° NNE
COSMOS 2406 3.2 20:39:14 10° SSW 20:45:00 81° ESE 20:50:47 10° NNE
CZ-2C R/B 3.9 20:42:12 10° N 20:46:47 72° WNW 20:51:14 10° SSW
X-37B 2.3 20:45:23 10° WSW 20:47:01 15° SSW 20:47:01 15° SSW
ATLAS 5 CENTAUR R/B 2.3 20:48:00 20° SSE 20:49:19 25° ESE 20:52:43 10° ENE
SPOT 5 4.2 20:50:16 10° SSW 20:54:04 29° W 20:57:51 10° NW
Meteor 1-27 4.4 20:50:43 10° N 20:56:16 64° ENE 21:00:16 19° SSE
Cosmos 1869 3.7 20:53:38 10° N 20:57:26 49° ENE 20:59:42 22° SE
Cosmos 2084 Rocket 4.4 20:54:18 10° WNW 20:57:47 31° SW 21:00:03 18° S
Terra 2.9 20:56:28 11° SSW 21:00:40 39° W 21:05:10 10° NNW
Cosmos 1833 Rocket 3.5 20:55:50 10° SW 21:01:19 52° NW 21:06:50 10° NNE
ASTEX 1 3.4 20:57:32 10° N 21:02:35 78° E 21:06:20 18° S
SL-8 Rocket 4.0 20:57:23 10° N 21:03:40 88° E 21:08:23 18° S
ADEOS Rocket 4.3 20:58:46 13° SE 21:05:01 45° ENE 21:12:16 10° N
ALOS 2 4.0 21:02:25 14° ESE 21:05:24 28° ENE 21:09:11 10° N
ERS-1 Rocket 4.4 21:02:57 10° SSW 21:07:21 30° W 21:11:47 10° NNW
FALCON 9 DEB 2.9 21:04:49 10° WNW 21:08:05 68° SSW 21:09:45 26° SE
Cosmos 1892 Rocket 3.9 21:04:14 12° SSW 21:08:15 65° WNW 21:12:37 10° N
Cosmos 2322 Rocket 3.1 21:04:23 10° NNW 21:09:49 43° NE 21:14:37 13° ESE
Cosmos 1302 Rocket 4.1 21:04:49 10° SSW 21:10:01 78° WNW 21:15:15 10° NNE
Cosmos 2058 Rocket 3.4 21:07:54 10° NNW 21:12:16 60° W 21:15:19 19° S
Cosmos 1503 Rocket 4.4 21:09:22 10° NNW 21:14:38 59° ENE 21:18:16 20° SE
Cosmos 1825 2.2 21:15:03 26° S 21:16:58 62° E 21:20:41 10° NNE
Cosmos 1408 3.0 21:16:15 17° SSW 21:18:42 55° WNW 21:22:07 10° N
Cosmos 1626 Rocket 3.6 21:17:38 24° SSE 21:20:06 61° E 21:24:25 10° NNE
Cosmos 2278 3.9 21:14:57 10° NNW 21:20:39 67° WSW 21:24:23 22° SSE
Meteor 1-11 4.4 21:15:39 12° SSW 21:20:53 72° WNW 21:26:29 10° N
Cosmos 2366 rocket 4.1 21:16:22 10° N 21:22:43 82° W 21:27:19 20° S
Cosmos 968 Rocket 4.5 21:18:16 10° NW 21:23:04 38° WSW 21:26:36 17° SSW
Cosmos 2333 Rocket 3.9 21:19:35 10° NNW 21:24:33 28° NE 21:29:30 10° ESE
Cosmos 2218 Rocket 4.1 21:19:47 10° NNW 21:26:13 78° W 21:30:50 20° S
USA 276 2.0 21:27:10 10° W 21:30:10 57° SSW 21:31:02 38° SE
SJ 16-02 1.9 21:28:23 10° NNW 21:32:44 50° ENE 21:35:23 22° SE
Cosmos 1867 4.5 21:28:31 10° NW 21:33:30 37° WSW 21:36:30 21° S
USA 267 3.3 21:28:08 10° ENE 21:34:35 57° SE 21:40:59 10° SW
Cosmos 2082 Rocket 2.6 21:29:21 10° SW 21:35:02 65° WNW 21:40:43 10° NNE
BREEZE-M DEB (TANK) 4.0 21:22:45 10° WSW 21:35:14 58° SSE 21:38:59 10° E
GP-B 4.0 21:36:09 10° N 21:40:24 45° W 21:43:35 16° SSW
H-2A R/B 4.1 21:38:50 10° NNE 21:42:50 41° E 21:44:32 28° SSE
Cosmos 2360 Rocket 2.8 21:40:16 10° NNW 21:45:50 51° NE 21:50:16 16° SE
Cosmos 2221 4.3 21:45:16 10° NNE 21:48:48 23° ENE 21:51:30 14° ESE
Spot 4 3.9 21:48:33 27° S 21:51:11 75° WSW 21:56:01 10° NNW
Cosmos 2058 3.9 21:50:01 25° SE 21:51:38 35° E 21:55:27 10° NNE
Cosmos 1606 2.9 21:47:56 10° N 21:51:47 59° ENE 21:53:24 31° SE
Cosmos 2237 4.2 21:55:35 10° NNW 22:01:22 90° E 22:04:54 25° SSE
Okean 1-7 Rocket 4.4 21:58:40 18° SW 22:01:48 47° WNW 22:06:11 10° N
USA 234 3.2 22:04:42 15° SE 22:10:15 72° SW 22:16:50 10° WNW
Cosmos 1758 Rocket 3.5 22:08:36 29° SSW 22:10:48 82° W 22:15:13 10° N
COSMOS 2428 4.3 22:06:21 10° NNW 22:11:25 31° NE 22:16:27 10° ESE
Cosmos 1633 2.9 22:12:09 30° SW 22:13:36 54° WNW 22:17:01 10° N
Cosmos 1980 Rocket 4.2 22:14:16 10° WNW 22:17:39 16° W 22:20:52 10° SW
Cosmos 1821 Rocket 4.2 22:11:28 10° NNW 22:17:39 66° W 22:21:23 25° S
SL-16 R/B 2.5 22:12:58 10° NW 22:18:29 52° WSW 22:21:23 27° S
Cosmos 1812 Rocket 4.3 22:15:48 10° NNW 22:20:01 43° W 22:22:08 25° SSW
SL-4 R/B 2.5 22:23:23 32° SE 22:23:23 32° SE 22:26:17 10° E
Cosmos 2219 Rocket 3.1 22:17:28 10° NNW 22:22:56 46° NE 22:28:08 11° SE
Cosmos-2242 3.8 22:25:22 10° NNW 22:29:22 41° W 22:31:12 26° SW
ATLAS 5 CENTAUR R/B 2.3 22:29:48 10° WSW 22:33:30 46° NW 22:37:46 10° NE
Cosmos 1605 Rocket 4.4 22:27:48 10° N 22:34:09 61° ENE 22:38:25 22° SSE
ERS-2 2.0 22:32:59 10° NNE 22:36:35 71° ESE 22:37:40 41° S
Meteor 2-11 Rocket 4.4 22:33:41 10° N 22:39:51 85° E 22:43:30 26° SSE
Nadezhda 3 Rocket 4.2 22:36:22 22° SSW 22:40:23 67° WNW 22:46:34 10° N
ALOS 2 3.5 22:39:48 26° SW 22:41:38 37° W 22:45:44 10° NNW
ADEOS Rocket 3.9 22:45:43 23° SSW 22:50:20 51° W 22:57:53 10° NNW
BREEZE-M DEB (TANK) 4.4 22:46:35 10° W 22:50:39 62° SSW 23:08:49 10° ESE
Cosmos 972 Rocket 4.1 22:46:29 10° NNW 22:51:38 72° WSW 22:54:40 28° S
Cosmos 2322 Rocket 2.9 22:48:36 10° NW 22:53:50 39° WSW 22:56:24 26° SSW
USA 290 3.8 22:51:14 10° N 22:54:13 32° ENE 22:56:05 18° ESE
Cosmos 1933 3.9 22:50:36 10° N 22:54:32 50° ENE 22:56:26 27° SE
OPS 8737 4.5 22:56:42 30° SW 22:58:31 86° SE 23:01:47 10° NE
PSLV R/B 3.7 22:55:53 10° NNE 23:00:42 88° ESE 23:03:01 30° SSW
ISS -2.2 23:01:42 22° ESE 23:01:42 22° ESE 23:03:37 10° E
Cosmos 1953 Rocket 3.7 22:58:43 30° SSW 23:00:49 68° WNW 23:05:13 10° N
SL-27 R/B 2.9 23:00:48 37° SE 23:01:23 41° ESE 23:04:30 10° NE
Cosmos 2333 Rocket 2.2 23:03:37 10° NNW 23:09:23 71° WSW 23:12:52 25° SSE
SJ 16-02 3.0 23:07:37 10° NW 23:10:57 21° W 23:12:19 18° WSW
CENTAUR R/B 3.5 23:09:34 21° SSE 23:12:22 30° ESE 23:18:14 10° NE
Gbstr 26 Del rocket 3.2 23:11:09 23° SW 23:13:52 63° SSE 23:19:15 10° ENE
COSMOS 2487 2.3 23:13:59 46° SSE 23:14:29 54° ESE 23:17:31 10° NNE
Cosmos 1340 Rocket 3.5 23:13:04 26° SW 23:14:51 45° WNW 23:18:42 10° N
Cosmos 1898 Rocket 3.7 23:11:16 10° NNW 23:16:27 67° ENE 23:20:27 17° SE
Cosmos 2151 3.5 23:14:58 28° SSE 23:16:56 52° E 23:21:08 10° NNE
USA 267 3.6 23:11:14 10° ENE 23:17:44 68° NNW 23:24:12 10° WSW
NOSS 0 Rocket 4.5 23:16:51 10° NNW 23:22:57 58° NE 23:29:01 10° SE
Meteor 2-3 Rocket 3.7 23:20:57 27° S 23:24:09 79° E 23:29:46 10° NNE
Cosmos 1937 Rocket 4.0 23:19:36 10° NNW 23:24:50 59° ENE 23:29:30 12° SE
Cosmos 1812 2.9 23:21:06 10° N 23:24:55 66° ENE 23:26:44 29° SSE
Cosmos 2221 3.2 23:22:23 10° NNW 23:26:31 42° W 23:28:17 28° SW
Cosmos 1842 Rocket 3.9 23:24:53 10° NNW 23:29:15 53° W 23:31:14 29° SSW
Cosmos 2360 Rocket 3.1 23:24:38 10° NW 23:29:37 32° WSW 23:32:00 23° SSW
Cosmos 2227 Rocket 4.4 23:31:08 10° SE 23:33:45 13° E 23:36:23 10° ENE
Resurs 1-4 Rocket 3.5 23:29:40 10° NNE 23:34:18 29° E 23:38:01 14° SSE
Cosmos 1782 2.7 23:31:32 10° NNW 23:35:31 73° W 23:37:13 32° S
Cosmos 1862 4.4 23:34:11 21° SE 23:36:11 35° E 23:39:48 10° NNE
CZ-2D R/B 3.3 23:38:17 10° NNE 23:42:58 32° E 23:46:40 15° SSE
COSMOS 2455 3.5 23:38:24 10° NNW 23:44:23 58° NE 23:50:18 10° SE
Cosmos 44 3.4 23:41:21 20° SW 23:44:30 64° NW 23:48:55 10° NE
Cosmos 1459 Rocket 4.0 23:47:42 10° N 23:53:48 82° E 23:58:33 17° SSE
USA 234 4.3 23:52:00 21° SSW 23:54:02 24° SW 23:59:13 10° WNW
